GAOFEN-3

Last updated on Mon Sep 07 2026 00:02:45 GMT+0000 (Coordinated Universal Time)

1 41727U 16049A 26249.60289948 .00000014 00000+0 17474-4 0 9991 2 41727 98.4055 256.1715 0000981 68.3365 291.7929 14.42224100530388
UTC large
Height (km)
Speed (km/s)
/
Latitude / Longitude
Inclination (degrees)
Orbital Period (minutes)
Azimuth
Elevation
Range (km)
Doppler Factor

Next 0 passes for location: London (51.5072 / 0.1276)

No passes found over London.
GAOFEN-3